Gwinn, MI

11:11 AM EDT on September 26, 2017 (GMT -0400)
Sawyer International

Weather History for KSAW - January, 2013

Change the Weather History Date:

Wednesday, January 2, 2013

  Actual Average (KESC) Record (KESC)
Temperature  
Mean Temperature 14 °F -  
Max Temperature 20 °F 25 °F 40 °F (1950)
Min Temperature 10 °F 8 °F -7 °F (1974)
Degree Days  
Heating Degree Days 50    
Moisture  
Dew Point 12 °F    
Average Humidity 85    
Maximum Humidity 93    
Minimum Humidity 78    
Precipitation  
Precipitation 0.00 in - - ()
Sea Level Pressure  
Sea Level Pressure 29.95 in    
Wind  
Wind Speed 6 mph (SW)    
Max Wind Speed 12 mph    
Max Gust Speed -    
Visibility 8 miles    
Events Snow    
Averages and records for this station are not official NWS values.
T = Trace of Precipitation, MM = Missing Value Source: NWS Daily Summary

Daily Weather History Graph

Daily Weather History Graph

Search for Another Location

Airport or City:

Trip Planner

Search our weather history database for the weather conditions in past years. The results will help you decide how hot, cold, wet, or windy it might be!

Date:

Astronomy

Jan. 02, 2013 Rise Set
Actual Time 8:32 AM EST 5:14 PM EST
Civil Twilight 7:58 AM EST 5:49 PM EST
Nautical Twilight 7:20 AM EST 6:27 PM EST
Astronomical Twilight 6:43 AM EST 7:04 PM EST
Moon 11:08 PM EST (1/2) 10:55 AM EST (1/2)
Length of Visible Light 9h 51m
Length of Day
8h 42m
Waning Gibbous, 75% of the Moon is Illuminated
Jan 2
Waning Gibbous
Jan 4
Last Quarter
Jan 11
New
Jan 18
First Quarter
Jan 26
Full

Hourly Weather History & Observations

Time (EST) Temp. Windchill Dew Point Humidity Pressure Visibility Wind Dir Wind Speed Gust Speed Precip Events Conditions
12:17 AM 10.4 °F 4.0 °F 4.6 °F 78% 29.92 in 7.0 mi South 3.5 mph - N/A Snow Light Snow
12:37 AM 10.2 °F 3.8 °F 4.6 °F 78% 29.92 in 7.0 mi SSE 3.5 mph - N/A Snow Light Snow
12:57 AM 10.4 °F 4.0 °F 5.2 °F 79% 29.92 in 7.0 mi South 3.5 mph - N/A Snow Light Snow
1:17 AM 10.4 °F -0.4 °F 5.7 °F 81% 29.92 in 7.0 mi SSW 6.9 mph - N/A Snow Light Snow
1:37 AM 10.4 °F -0.4 °F 5.9 °F 82% 29.92 in 7.0 mi SSW 6.9 mph - N/A Snow Light Snow
1:57 AM 10.8 °F 1.2 °F 6.6 °F 83% 29.92 in 7.0 mi SSW 5.8 mph - N/A Snow Light Snow
2:17 AM 10.9 °F 0.2 °F 6.8 °F 83% 29.92 in 10.0 mi SSW 6.9 mph - N/A Snow Light Snow
2:37 AM 11.3 °F 5.1 °F 7.5 °F 85% 29.92 in 5.0 mi SW 3.5 mph - N/A Snow Light Snow
2:57 AM 11.3 °F 3.3 °F 7.5 °F 85% 29.93 in 5.0 mi SW 4.6 mph - N/A Snow Light Snow
3:17 AM 12.2 °F 2.9 °F 8.4 °F 85% 29.94 in 7.0 mi WSW 5.8 mph - N/A Snow Light Snow
3:36 AM 12.9 °F 5.2 °F 9.3 °F 86% 29.94 in 7.0 mi WSW 4.6 mph - N/A Snow Light Snow
3:57 AM 14.0 °F 6.5 °F 10.4 °F 86% 29.94 in 7.0 mi WSW 4.6 mph - N/A Snow Light Snow
4:17 AM 14.0 °F 8.2 °F 10.4 °F 86% 29.94 in 7.0 mi West 3.5 mph - N/A Snow Light Snow
4:36 AM 14.0 °F 6.5 °F 10.8 °F 87% 29.94 in 7.0 mi WSW 4.6 mph - N/A Snow Light Snow
4:57 AM 14.7 °F 5.9 °F 11.3 °F 86% 29.95 in 7.0 mi WSW 5.8 mph - N/A Snow Light Snow
5:16 AM 14.9 °F 5.0 °F 11.7 °F 87% 29.95 in 10.0 mi WSW 6.9 mph - N/A Snow Light Snow
5:37 AM 15.4 °F 6.8 °F 12.0 °F 86% 29.96 in 10.0 mi West 5.8 mph - N/A Snow Light Snow
5:57 AM 15.8 °F 7.2 °F 12.2 °F 86% 29.96 in 10.0 mi West 5.8 mph - N/A Snow Light Snow
6:50 AM 15.8 °F 8.6 °F 12.2 °F 86% 29.97 in 10.0 mi West 4.6 mph - N/A Snow Light Snow
7:50 AM 15.8 °F 8.6 °F 14.0 °F 93% 29.98 in 10.0 mi WSW 4.6 mph - N/A   Overcast
8:20 AM 15.8 °F 10.2 °F 14.0 °F 93% 29.98 in 10.0 mi West 3.5 mph - N/A   Overcast
8:50 AM 15.8 °F 10.2 °F 14.0 °F 93% 29.98 in 7.0 mi WSW 3.5 mph - N/A Snow Light Snow
9:50 AM 17.6 °F 12.3 °F 14.0 °F 86% 29.99 in 4.0 mi SW 3.5 mph - N/A Snow Light Snow
10:50 AM 17.6 °F 10.7 °F 15.8 °F 93% 30.01 in 7.0 mi SSW 4.6 mph - N/A Snow Light Snow
11:50 AM 19.4 °F 9.5 °F 15.8 °F 86% 30.01 in 10.0 mi SW 8.1 mph - N/A Snow Light Snow
12:50 PM 19.4 °F 9.5 °F 15.8 °F 86% 29.99 in 10.0 mi SW 8.1 mph - N/A Snow Light Snow
1:50 PM 19.4 °F 7.9 °F 14.0 °F 80% 29.97 in 10.0 mi SSW 10.4 mph - N/A   Overcast
2:50 PM 19.4 °F 7.9 °F 14.0 °F 80% 29.96 in 10.0 mi SSW 10.4 mph - N/A   Overcast
3:50 PM 19.4 °F 10.4 °F 14.0 °F 80% 29.96 in 10.0 mi South 6.9 mph - N/A   Overcast
4:50 PM 19.4 °F 7.2 °F 14.0 °F 80% 29.97 in 10.0 mi South 11.5 mph - N/A   Overcast
5:50 PM 19.4 °F 9.5 °F 14.0 °F 80% 29.98 in 10.0 mi South 8.1 mph - N/A   Overcast
6:55 PM 19.4 °F 7.9 °F 14.0 °F 80% 29.98 in 10.0 mi SSW 10.4 mph - N/A   Overcast
7:50 PM 19.4 °F 8.6 °F 14.0 °F 80% 29.96 in 10.0 mi South 9.2 mph - N/A   Overcast
8:50 PM 17.6 °F 6.4 °F 14.0 °F 86% 29.96 in 10.0 mi SSW 9.2 mph - N/A   Overcast
9:47 PM 17.6 °F 5.0 °F 14.0 °F 86% 29.95 in 10.0 mi SSW 11.5 mph - N/A   Overcast
10:17 PM 18.3 °F 5.9 °F 14.9 °F 86% 29.95 in 7.0 mi SSW 11.5 mph - N/A Snow Light Snow
10:37 PM 18.3 °F 6.6 °F 14.9 °F 86% 29.95 in 10.0 mi SSW 10.4 mph - N/A Snow Light Snow
10:56 PM 18.3 °F 7.3 °F 14.9 °F 86% 29.95 in 10.0 mi SW 9.2 mph - N/A   Overcast
11:17 PM 18.3 °F 9.1 °F 14.9 °F 86% 29.96 in 10.0 mi SW 6.9 mph - N/A   Overcast
11:37 PM 18.3 °F 8.2 °F 14.9 °F 86% 29.95 in 10.0 mi SW 8.1 mph - N/A Snow Light Snow
11:56 PM 18.3 °F 9.1 °F 14.9 °F 86% 29.95 in 10.0 mi SW 6.9 mph - N/A Snow Light Snow